Total_Precipitation_Accumulation
0.66 0.66 0.65 0.65 0.65 0.63 0.61 0.60 0.56 0.54 0.51 0.48 0.49 0.48 0.45 0.38 0.32 0.29 0.26 0.28 0.31 0.33 0.44 0.65 0.86 1.15 1.43 1.49 1.53 1.42 1.29 1.23 1.10 0.96 0.93 1.06 1.15 1.12 1.06 1.10 1.01 0.83 0.78
0.69 0.68 0.70 0.66 0.63 0.63 0.61 0.59 0.55 0.52 0.50 0.47 0.43 0.40 0.40 0.39 0.36 0.35 0.33 0.33 0.32 0.31 0.37 0.53 0.73 0.96 1.29 1.52 1.64 1.79 1.61 1.47 1.41 1.21 1.00 0.98 1.07 1.10 1.10 1.11 1.15 1.04 0.89
0.84 0.75 0.72 0.70 0.65 0.65 0.67 0.66 0.63 0.55 0.53 0.48 0.44 0.40 0.36 0.34 0.33 0.36 0.37 0.37 0.37 0.35 0.36 0.45 0.59 0.79 1.03 1.32 1.59 1.86 2.00 1.74 1.66 1.60 1.35 1.09 1.07 1.13 1.18 1.21 1.22 1.25 1.11
0.91 0.91 0.82 0.74 0.68 0.71 0.74 0.76 0.73 0.67 0.57 0.53 0.49 0.44 0.38 0.35 0.32 0.31 0.32 0.35 0.38 0.39 0.38 0.42 0.48 0.62 0.84 1.09 1.37 1.68 2.20 2.13 1.93 1.84 1.79 1.47 1.18 1.13 1.15 1.23 1.29 1.32 1.37
0.95 0.97 0.96 0.89 0.79 0.78 0.77 0.75 0.73 0.70 0.66 0.59 0.54 0.52 0.48 0.42 0.37 0.35 0.32 0.30 0.31 0.37 0.40 0.42 0.46 0.51 0.66 0.88 1.16 1.48 2.06 2.35 2.31 2.23 2.16 1.98 1.57 1.27 1.18 1.22 1.31 1.37 1.46
0.97 0.92 0.98 0.98 0.92 0.86 0.83 0.77 0.73 0.67 0.63 0.61 0.62 0.60 0.54 0.49 0.46 0.42 0.38 0.34 0.30 0.32 0.38 0.42 0.46 0.47 0.55 0.72 0.93 1.20 1.60 2.02 2.26 2.40 2.42 2.45 2.24 1.73 1.42 1.33 1.37 1.50 1.59
1.06 0.98 0.92 0.94 0.95 0.90 0.84 0.80 0.78 0.77 0.73 0.67 0.72 0.77 0.72 0.59 0.52 0.47 0.45 0.42 0.38 0.35 0.36 0.40 0.45 0.50 0.53 0.63 0.75 0.91 1.20 1.59 1.94 2.19 2.31 2.42 2.62 2.42 1.94 1.63 1.53 1.59 1.72
1.05 1.07 0.98 0.91 0.87 0.87 0.88 0.83 0.82 0.81 0.82 0.77 0.75 0.82 0.83 0.81 0.64 0.48 0.43 0.44 0.42 0.41 0.41 0.39 0.41 0.48 0.56 0.59 0.60 0.69 0.85 1.17 1.63 2.04 2.27 2.37 2.57 2.81 2.60 2.10 1.81 1.75 1.82
0.99 1.01 1.02 0.98 0.91 0.85 0.86 0.84 0.80 0.78 0.79 0.76 0.68 0.81 0.89 0.78 0.62 0.52 0.44 0.39 0.38 0.41 0.40 0.41 0.41 0.42 0.49 0.58 0.58 0.56 0.60 0.83 1.25 1.71 2.15 2.41 2.58 2.88 3.05 2.77 2.30 2.04 2.03
1.00 0.96 0.97 0.97 0.99 0.93 0.83 0.79 0.80 0.80 0.82 0.83 0.73 0.65 0.68 0.68 0.71 0.61 0.51 0.46 0.42 0.41 0.40 0.40 0.40 0.40 0.43 0.51 0.58 0.57 0.57 0.66 0.94 1.43 1.88 2.36 2.72 2.99 3.39 3.36 3.01 2.58 2.34
1.07 0.98 0.94 0.94 0.94 0.92 0.84 0.78 0.79 0.82 0.84 0.84 0.80 0.70 0.64 0.56 0.56 0.66 0.56 0.48 0.52 0.49 0.46 0.46 0.45 0.44 0.44 0.47 0.51 0.56 0.64 0.70 0.90 1.24 1.65 2.15 2.85 3.20 3.62 3.84 3.49 2.94 2.57
1.13 1.03 0.93 0.89 0.85 0.82 0.81 0.76 0.71 0.72 0.76 0.76 0.73 0.72 0.73 0.70 0.60 0.62 0.60 0.47 0.46 0.48 0.49 0.53 0.55 0.52 0.50 0.52 0.54 0.66 0.72 0.78 0.94 1.16 1.34 1.70 2.29 3.01 3.50 3.82 3.69 3.20 2.77
1.11 1.03 0.97 0.88 0.82 0.78 0.78 0.77 0.73 0.67 0.68 0.72 0.71 0.67 0.65 0.62 0.57 0.62 0.71 0.63 0.53 0.48 0.52 0.54 0.54 0.57 0.58 0.60 0.62 0.72 0.73 0.77 0.85 1.05 1.12 1.19 1.56 2.20 2.96 3.57 3.88 3.65 3.17
0.99 0.91 0.92 0.89 0.81 0.76 0.78 0.80 0.80 0.73 0.69 0.70 0.68 0.66 0.66 0.61 0.62 0.69 0.80 0.87 0.81 0.60 0.53 0.52 0.49 0.49 0.57 0.59 0.60 0.69 0.65 0.72 0.78 0.90 0.96 1.01 1.16 1.53 2.16 2.91 3.70 4.17 3.88
0.93 0.92 0.91 0.91 0.86 0.85 0.85 0.85 0.85 0.80 0.75 0.73 0.72 0.71 0.72 0.68 0.67 0.69 0.74 0.87 1.08 0.97 0.61 0.45 0.45 0.47 0.55 0.61 0.60 0.57 0.56 0.67 0.73 0.81 0.92 0.96 1.04 1.24 1.60 2.16 2.79 3.70 4.30
0.92 0.92 0.97 0.98 0.93 0.89 0.92 0.95 0.90 0.84 0.84 0.80 0.80 0.81 0.76 0.72 0.74 0.78 0.82 0.82 0.89 1.02 0.82 0.45 0.41 0.43 0.52 0.66 0.75 0.65 0.61 0.74 0.77 0.79 0.81 0.84 0.92 1.09 1.33 1.66 2.10 2.70 3.60
0.94 0.90 0.90 0.98 1.01 0.94 0.88 0.95 0.97 0.94 0.92 0.86 0.83 0.85 0.81 0.77 0.85 0.89 0.93 0.93 0.88 0.91 0.94 0.55 0.44 0.49 0.63 0.74 0.81 0.76 0.74 0.73 0.73 0.77 0.79 0.83 0.87 0.99 1.20 1.42 1.66 2.04 2.69
0.97 0.89 0.86 0.93 1.00 0.99 0.91 0.90 0.93 0.93 0.95 0.92 0.88 0.89 0.88 0.85 0.88 0.92 1.00 0.99 0.91 0.86 0.92 0.77 0.59 0.63 0.72 0.81 0.85 0.83 0.81 0.79 0.70 0.74 0.75 0.86 0.91 0.98 1.13 1.30 1.46 1.68 2.07
1.14 1.00 0.91 0.94 1.02 1.07 1.01 0.92 0.93 0.93 0.90 0.87 0.85 0.90 0.93 0.94 0.89 0.89 0.99 1.04 0.98 0.93 0.95 0.95 0.76 0.69 0.78 0.89 1.00 0.99 0.94 0.92 0.81 0.79 0.80 0.88 0.97 0.98 1.05 1.19 1.38 1.53 1.70
1.21 1.13 1.01 0.96 1.02 1.14 1.18 1.14 1.13 1.05 0.96 0.85 0.77 0.79 0.89 1.02 1.03 1.04 1.09 1.07 1.09 1.14 1.12 1.11 0.96 0.84 0.89 0.98 1.12 1.17 1.14 1.07 1.01 0.91 0.94 0.99 1.05 1.07 1.04 1.04 1.11 1.24 1.41
1.10 1.12 1.09 1.02 1.03 1.24 1.47 1.63 1.51 1.22 1.02 0.91 0.76 0.71 0.81 1.05 1.24 1.41 1.47 1.35 1.36 1.49 1.46 1.41 1.29 1.13 1.04 1.09 1.19 1.18 1.24 1.17 1.15 1.09 1.05 1.05 1.00 0.97 0.96 0.97 1.01 1.08 1.17
1.05 1.06 1.05 1.03 1.02 1.21 1.57 1.80 1.48 1.13 0.99 0.92 0.85 0.75 0.79 1.03 1.18 1.31 1.45 1.44 1.48 1.67 1.78 1.72 1.57 1.35 1.06 0.96 1.03 1.22 1.42 1.57 1.50 1.26 1.17 1.17 1.01 0.98 0.94 0.87 0.97 1.05 1.12
1.03 1.03 0.99 0.98 0.95 1.02 1.36 1.60 1.37 1.06 0.95 0.90 0.86 0.81 0.83 0.93 1.05 1.08 1.18 1.23 1.26 1.44 1.68 1.78 1.73 1.36 1.14 1.03 1.22 1.44 1.52 1.63 1.51 1.43 1.44 1.51 1.22 1.09 0.98 0.99 1.09 1.06 1.12
1.00 1.00 0.99 0.96 0.91 0.95 1.24 1.49 1.32 1.06 0.97 0.91 0.91 0.85 0.78 0.82 0.95 1.10 1.18 1.15 1.08 1.15 1.39 1.59 1.77 1.57 1.36 1.38 1.64 1.88 1.99 2.02 1.78 1.65 1.61 1.81 1.50 1.25 1.13 1.09 1.15 1.08 1.05
0.99 0.96 0.94 0.96 0.91 0.89 1.14 1.51 1.40 1.09 1.01 0.95 0.94 0.89 0.79 0.75 0.93 1.10 1.08 1.06 0.99 1.03 1.16 1.36 1.52 1.58 1.59 1.74 2.03 2.42 2.58 2.57 2.31 1.99 1.78 1.80 1.74 1.58 1.53 1.48 1.38 1.26 1.09
0.92 0.93 0.89 0.89 0.88 0.83 0.99 1.40 1.53 1.14 1.04 0.97 0.96 0.92 0.98 0.96 1.05 1.07 0.98 1.04 1.13 1.02 0.97 1.02 1.07 1.13 1.18 1.33 1.73 2.17 2.49 2.60 2.38 2.29 2.00 1.79 1.81 1.84 2.18 2.01 1.65 1.35 1.17